.
WxDataArchive / Data Records for 2009-10-09
2009-10-08 October 2009 2009-10-10

Data Records for Friday, 09 October 2009

Time	Temp	Chill	HIndex	Humid	Dewpt	 Wind 	HiWind	WindDir	Rain 	Barom 
-----	----	-----	------	-----	-----	------	------	-------	-----	----- 
00:00	50.4	50.4	50.4	96	49.3	0	1	112	0.00	29.885 
00:05	50.4	50.4	50.4	96	49.3	0	1	112	0.00	29.885 
00:10	50.2	50.2	50.2	96	49.1	0	2	112	0.01	29.885 
00:15	50.1	50.1	50.1	96	49.0	0	1	112	0.00	29.857 
00:20	50.1	50.1	50.1	96	49.0	0	0	---	0.00	29.857 
00:25	50.1	50.1	50.1	96	49.0	0	0	---	0.01	29.857 
00:30	49.9	49.9	49.9	96	48.8	0	0	---	0.00	29.875 
00:35	49.9	49.9	49.9	96	48.8	0	0	---	0.00	29.875 
00:40	49.9	49.9	49.9	96	48.8	0	0	---	0.00	29.875 
00:45	49.9	49.9	49.9	96	48.8	0	0	---	0.00	29.876 
00:50	50.1	50.1	50.1	96	49.0	0	0	---	0.01	29.876 
00:55	50.1	50.1	50.1	96	49.0	0	0	---	0.00	29.876 
01:00	50.1	50.1	50.1	96	49.0	0	0	---	0.00	29.863 
01:05	50.1	50.1	50.1	96	49.0	0	1	112	0.00	29.863 
01:10	50.1	50.1	50.1	96	49.0	0	1	112	0.01	29.863 
01:15	50.1	50.1	50.1	96	49.0	0	0	---	0.00	29.861 
01:20	50.1	50.1	50.1	96	49.0	0	0	---	0.01	29.861 
01:25	50.1	50.1	50.1	96	49.0	0	0	---	0.01	29.861 
01:30	50.1	50.1	50.1	96	49.0	0	0	---	0.00	29.865 
01:35	49.9	49.9	49.9	96	48.8	0	0	---	0.01	29.865 
01:40	49.9	49.9	49.9	96	48.8	0	0	---	0.01	29.865 
01:45	50.1	50.1	50.1	96	49.0	0	0	---	0.00	29.863 
01:50	50.1	50.1	50.1	96	49.0	0	0	---	0.01	29.863 
01:55	50.1	50.1	50.1	96	49.0	0	0	---	0.00	29.863 
02:00	50.1	50.1	50.1	96	49.0	0	0	---	0.00	29.844 
02:05	50.1	50.1	50.1	96	49.0	0	0	---	0.00	29.844 
02:10	50.1	50.1	50.1	96	49.0	0	1	112	0.00	29.844 
02:15	50.1	50.1	50.1	96	49.0	0	1	112	0.00	29.815 
02:20	49.9	49.9	49.9	96	48.8	0	1	112	0.00	29.815 
02:25	49.9	49.9	49.9	96	48.8	0	1	112	0.00	29.815 
02:30	50.1	50.1	50.1	96	49.0	0	0	---	0.00	29.817 
02:35	50.1	50.1	50.1	96	49.0	0	0	---	0.00	29.817 
02:40	50.1	50.1	50.1	97	49.3	0	0	---	0.00	29.817 
02:45	50.1	50.1	50.1	97	49.3	0	0	---	0.00	29.828 
02:50	50.1	50.1	50.1	97	49.3	0	0	---	0.01	29.828 
02:55	50.1	50.1	50.1	97	49.3	0	0	---	0.00	29.828 
03:00	50.1	50.1	50.1	97	49.3	0	0	---	0.01	29.814 
03:05	50.1	50.1	50.1	97	49.3	0	1	112	0.00	29.814 
03:10	50.1	50.1	50.1	97	49.3	0	0	---	0.00	29.814 
03:15	49.9	49.9	49.9	97	49.1	0	1	112	0.01	29.816 
03:20	49.9	49.9	49.9	97	49.1	0	0	---	0.01	29.816 
03:25	50.1	50.1	50.1	97	49.3	0	0	---	0.00	29.816 
03:30	50.1	50.1	50.1	97	49.3	0	0	---	0.00	29.830 
03:35	50.1	50.1	50.1	97	49.3	0	0	---	0.01	29.830 
03:40	50.1	50.1	50.1	97	49.3	0	0	---	0.00	29.830 
03:45	50.1	50.1	50.1	97	49.3	0	0	---	0.01	29.834 
03:50	50.1	50.1	50.1	97	49.3	0	0	---	0.00	29.834 
03:55	50.1	50.1	50.1	97	49.3	0	0	---	0.00	29.834 
04:00	50.1	50.1	50.1	97	49.3	0	1	112	0.01	29.817 
04:05	50.2	50.2	50.2	97	49.4	0	1	112	0.00	29.817 
04:10	50.2	50.2	50.2	97	49.4	0	2	112	0.00	29.817 
04:15	50.2	50.2	50.2	97	49.4	0	1	112	0.00	29.800 
04:20	50.1	50.1	50.1	97	49.3	0	0	---	0.00	29.800 
04:25	50.1	50.1	50.1	97	49.3	0	2	112	0.01	29.800 
04:30	50.1	50.1	50.1	97	49.3	0	2	112	0.00	29.802 
04:35	50.1	50.1	50.1	97	49.3	0	0	---	0.00	29.802 
04:40	50.1	50.1	50.1	97	49.3	0	0	---	0.01	29.802 
04:45	50.1	50.1	50.1	97	49.3	0	0	---	0.00	29.812 
04:50	50.1	50.1	50.1	97	49.3	0	0	---	0.00	29.812 
04:55	50.2	50.2	50.2	97	49.4	0	0	---	0.01	29.812 
05:00	50.1	50.1	50.1	97	49.3	0	0	---	0.00	29.803 
05:05	50.1	50.1	50.1	97	49.3	0	0	---	0.01	29.803 
05:10	50.1	50.1	50.1	97	49.3	0	0	---	0.00	29.803 
05:15	50.1	50.1	50.1	97	49.3	0	0	---	0.00	29.812 
05:20	50.1	50.1	50.1	97	49.3	0	0	---	0.01	29.812 
05:25	50.1	50.1	50.1	97	49.3	0	0	---	0.00	29.812 
05:30	50.1	50.1	50.1	97	49.3	0	0	---	0.00	29.808 
05:35	50.1	50.1	50.1	97	49.3	0	0	---	0.01	29.808 
05:40	50.1	50.1	50.1	97	49.3	0	0	---	0.00	29.808 
05:45	50.1	50.1	50.1	97	49.3	0	0	---	0.01	29.816 
05:50	50.1	50.1	50.1	97	49.3	0	0	---	0.00	29.816 
05:55	50.1	50.1	50.1	97	49.3	0	0	---	0.01	29.816 
06:00	50.1	50.1	50.1	97	49.3	0	0	---	0.01	29.818 
06:05	50.1	50.1	50.1	97	49.3	0	0	---	0.01	29.818 
06:10	50.1	50.1	50.1	97	49.3	0	0	---	0.01	29.818 
06:15	50.1	50.1	50.1	97	49.3	0	0	---	0.00	29.812 
06:20	50.1	50.1	50.1	97	49.3	0	0	---	0.01	29.812 
06:25	50.2	50.2	50.2	97	49.4	0	0	---	0.00	29.812 
06:30	50.2	50.2	50.2	97	49.4	0	0	---	0.01	29.815 
06:35	50.2	50.2	50.2	97	49.4	0	0	---	0.00	29.815 
06:40	50.2	50.2	50.2	97	49.4	0	1	112	0.00	29.815 
06:45	50.2	50.2	50.2	97	49.4	0	0	---	0.01	29.816 
06:50	50.2	50.2	50.2	97	49.4	0	0	---	0.00	29.816 
06:55	50.2	50.2	50.2	97	49.4	0	0	---	0.00	29.816 
07:00	50.4	50.4	50.4	97	49.6	0	0	---	0.01	29.830 
07:05	50.2	50.2	50.2	97	49.4	0	0	---	0.01	29.830 
07:10	50.2	50.2	50.2	97	49.4	0	1	112	0.01	29.830 
07:15	50.2	50.2	50.2	97	49.4	0	0	---	0.00	29.823 
07:20	50.2	50.2	50.2	97	49.4	0	0	---	0.00	29.823 
07:25	50.2	50.2	50.2	97	49.4	0	0	---	0.01	29.823 
07:30	50.2	50.2	50.2	97	49.4	0	0	---	0.00	29.818 
07:35	50.2	50.2	50.2	97	49.4	0	0	---	0.01	29.818 
07:40	50.2	50.2	50.2	97	49.4	0	0	---	0.00	29.818 
07:45	50.2	50.2	50.2	97	49.4	0	0	---	0.00	29.825 
07:50	50.2	50.2	50.2	97	49.4	0	0	---	0.00	29.825 
07:55	50.2	50.2	50.2	97	49.4	0	0	---	0.01	29.825 
08:00	50.2	50.2	50.2	97	49.4	0	1	112	0.00	29.815 
08:05	50.2	50.2	50.2	97	49.4	0	0	---	0.00	29.815 
08:10	50.2	50.2	50.2	97	49.4	0	0	---	0.00	29.815 
08:15	50.2	50.2	50.2	97	49.4	0	1	112	0.00	29.815 
08:20	50.2	50.2	50.2	97	49.4	0	0	---	0.00	29.815 
08:25	50.2	50.2	50.2	97	49.4	0	0	---	0.00	29.815 
08:30	50.4	50.4	50.4	97	49.6	0	0	---	0.01	29.805 
08:35	50.4	50.4	50.4	97	49.6	0	2	112	0.00	29.805 
08:40	50.2	50.2	50.2	97	49.4	0	3	112	0.00	29.805 
08:45	50.2	50.2	50.2	97	49.4	0	1	112	0.00	29.790 
08:50	50.2	50.2	50.2	97	49.4	0	0	---	0.00	29.790 
08:55	50.4	50.4	50.4	97	49.6	0	0	---	0.00	29.790 
09:00	50.4	50.4	50.4	97	49.6	0	1	112	0.00	29.799 
09:05	50.4	50.4	50.4	97	49.6	0	1	112	0.00	29.799 
09:10	50.4	50.4	50.4	97	49.6	0	0	---	0.00	29.799 
09:15	50.4	50.4	50.4	97	49.6	0	1	112	0.00	29.799 
09:20	50.4	50.4	50.4	97	49.6	0	1	112	0.00	29.799 
09:25	50.4	50.4	50.4	97	49.6	0	2	112	0.01	29.799 
09:30	50.4	50.4	50.4	97	49.6	0	1	112	0.00	29.796 
09:35	50.4	50.4	50.4	97	49.6	0	0	---	0.00	29.796 
09:40	50.4	50.4	50.4	97	49.6	0	0	---	0.00	29.796 
09:45	50.4	50.4	50.4	97	49.6	0	1	112	0.01	29.814 
09:50	50.4	50.4	50.4	97	49.6	0	0	---	0.01	29.814 
09:55	50.4	50.4	50.4	97	49.6	0	1	112	0.01	29.814 
10:00	50.5	50.5	50.5	97	49.7	0	0	---	0.00	29.804 
10:05	50.5	50.5	50.5	97	49.7	0	0	---	0.00	29.804 
10:10	50.5	50.5	50.5	97	49.7	0	0	---	0.01	29.804 
10:15	50.5	50.5	50.5	97	49.7	0	0	---	0.00	29.813 
10:20	50.7	50.7	50.7	97	49.9	0	0	---	0.00	29.813 
10:25	50.7	50.7	50.7	97	49.9	0	0	---	0.00	29.813 
10:30	50.7	50.7	50.7	97	49.9	0	0	---	0.01	29.812 
10:35	50.8	50.8	50.8	97	50.0	0	3	112	0.00	29.812 
10:40	50.8	50.8	50.8	97	50.0	0	1	112	0.00	29.812 
10:45	50.8	50.8	50.8	97	50.0	0	0	---	0.00	29.819 
10:50	50.8	50.8	50.8	97	50.0	0	1	112	0.00	29.819 
10:55	50.8	50.8	50.8	97	50.0	0	0	---	0.01	29.819 
11:00	51.0	51.0	51.0	97	50.2	0	1	112	0.01	29.813 
11:05	51.0	51.0	51.0	97	50.2	0	1	112	0.01	29.813 
11:10	51.1	51.1	51.1	97	50.3	0	1	112	0.00	29.813 
11:15	51.1	51.1	51.1	97	50.3	0	2	112	0.01	29.791 
11:20	51.1	51.1	51.1	97	50.3	0	3	112	0.00	29.791 
11:25	51.1	51.1	51.1	97	50.3	0	2	112	0.00	29.791 
11:30	51.0	51.0	51.0	97	50.2	1	3	112	0.00	29.802 
11:35	51.0	51.0	51.0	97	50.2	0	1	112	0.01	29.802 
11:40	51.0	51.0	51.0	97	50.2	0	0	---	0.01	29.802 
11:45	51.0	51.0	51.0	97	50.2	0	1	112	0.01	29.810 
11:50	51.0	51.0	51.0	97	50.2	0	0	---	0.01	29.810 
11:55	51.0	51.0	51.0	97	50.2	0	0	---	0.01	29.810 
12:00	51.0	51.0	51.0	97	50.2	0	1	112	0.03	29.807 
12:05	51.0	51.0	51.0	97	50.2	0	2	112	0.01	29.807 
12:10	51.0	51.0	51.0	97	50.2	0	0	---	0.00	29.807 
12:15	51.1	51.1	51.1	97	50.3	0	1	112	0.01	29.811 
12:20	51.3	51.3	51.3	97	50.5	0	0	---	0.00	29.811 
12:25	51.4	51.4	51.4	97	50.6	0	1	112	0.01	29.811 
12:30	51.3	51.3	51.3	97	50.5	0	2	112	0.00	29.812 
12:35	51.3	51.3	51.3	97	50.5	0	0	---	0.01	29.812 
12:40	51.4	51.4	51.4	97	50.6	0	1	112	0.00	29.812 
12:45	51.4	51.4	51.4	97	50.6	0	2	112	0.01	29.802 
12:50	51.6	51.6	51.6	97	50.8	0	1	112	0.00	29.802 
12:55	51.6	51.6	51.6	97	50.8	0	2	112	0.01	29.802 
13:00	51.6	51.6	51.6	97	50.8	0	1	112	0.00	29.796 
13:05	51.6	51.6	51.6	97	50.8	0	1	112	0.00	29.796 
13:10	51.7	51.7	51.7	97	50.9	0	2	112	0.01	29.796 
13:15	51.7	51.7	51.7	97	50.9	0	1	112	0.00	29.797 
13:20	51.7	51.7	51.7	97	50.9	0	2	248	0.01	29.797 
13:25	51.7	51.7	51.7	97	50.9	0	1	248	0.00	29.797 
13:30	51.7	51.7	51.7	97	50.9	0	1	248	0.01	29.795 
13:35	51.9	51.9	51.9	97	51.1	0	1	248	0.01	29.795 
13:40	51.7	51.7	51.7	97	50.9	0	2	135	0.01	29.795 
13:45	51.7	51.7	51.7	97	50.9	0	2	135	0.00	29.787 
13:50	51.7	51.7	51.7	97	50.9	0	1	135	0.00	29.787 
13:55	51.7	51.7	51.7	97	50.9	0	2	135	0.00	29.787 
14:00	51.9	51.9	51.9	97	51.1	0	1	135	0.00	29.788 
14:05	51.7	51.7	51.7	97	50.9	0	2	135	0.01	29.788 
14:10	51.7	51.7	51.7	97	50.9	0	1	135	0.01	29.788 
14:15	51.6	51.6	51.6	97	50.8	0	2	135	0.00	29.784 
14:20	51.6	51.6	51.6	97	50.8	0	1	135	0.01	29.784 
14:25	51.7	51.7	51.7	97	50.9	0	1	135	0.01	29.784 
14:30	51.9	51.9	51.9	97	51.1	0	1	135	0.00	29.770 
14:35	51.9	51.9	51.9	97	51.1	0	2	135	0.01	29.770 
14:40	51.9	51.9	51.9	97	51.1	0	1	135	0.00	29.770 
14:45	51.9	51.9	51.9	97	51.1	0	1	135	0.00	29.776 
14:50	51.9	51.9	51.9	97	51.1	0	2	135	0.00	29.776 
14:55	51.7	51.7	51.7	97	50.9	0	3	135	0.00	29.776 
15:00	51.7	51.7	51.7	97	50.9	0	2	90	0.00	29.763 
15:05	51.7	51.7	51.7	97	50.9	0	1	90	0.01	29.763 
15:10	51.7	51.7	51.7	97	50.9	0	2	90	0.00	29.763 
15:15	51.7	51.7	51.7	97	50.9	0	1	90	0.00	29.764 
15:20	51.7	51.7	51.7	97	50.9	0	1	90	0.01	29.764 
15:25	51.9	51.9	51.9	97	51.1	0	0	---	0.00	29.764 
15:30	51.9	51.9	51.9	97	51.1	0	0	---	0.00	29.768 
15:35	51.9	51.9	51.9	97	51.1	0	1	90	0.01	29.768 
15:40	51.9	51.9	51.9	97	51.1	0	1	90	0.00	29.768 
15:45	51.9	51.9	51.9	97	51.1	0	1	90	0.01	29.768 
15:50	51.9	51.9	51.9	97	51.1	0	1	90	0.00	29.768 
15:55	51.9	51.9	51.9	97	51.1	0	1	90	0.00	29.768 
16:00	51.9	51.9	51.9	97	51.1	0	0	---	0.00	29.767 
16:05	51.7	51.7	51.7	97	50.9	0	0	---	0.00	29.767 
16:10	51.7	51.7	51.7	97	50.9	0	0	---	0.00	29.767 
16:15	51.9	51.9	51.9	97	51.1	0	0	---	0.01	29.777 
16:20	51.7	51.7	51.7	97	50.9	0	0	---	0.00	29.777 
16:25	51.7	51.7	51.7	97	50.9	0	1	248	0.00	29.777 
16:30	51.7	51.7	51.7	97	50.9	0	1	248	0.00	29.784 
16:35	51.7	51.7	51.7	97	50.9	0	0	---	0.01	29.784 
16:40	51.7	51.7	51.7	97	50.9	0	0	---	0.01	29.784 
16:45	51.7	51.7	51.7	97	50.9	0	1	248	0.00	29.780 
16:50	51.7	51.7	51.7	97	50.9	0	0	---	0.01	29.780 
16:55	51.7	51.7	51.7	97	50.9	0	0	---	0.00	29.780 
17:00	51.7	51.7	51.7	97	50.9	0	0	---	0.00	29.784 
17:05	51.6	51.6	51.6	97	50.8	0	0	---	0.01	29.784 
17:10	51.6	51.6	51.6	97	50.8	0	1	248	0.00	29.784 
17:15	51.4	51.4	51.4	97	50.6	0	0	---	0.01	29.797 
17:20	51.4	51.4	51.4	97	50.6	0	0	---	0.01	29.797 
17:25	51.4	51.4	51.4	97	50.6	0	1	248	0.00	29.797 
17:30	51.3	51.3	51.3	97	50.5	0	0	---	0.01	29.799 
17:35	51.4	51.4	51.4	97	50.6	0	1	248	0.00	29.799 
17:40	51.4	51.4	51.4	97	50.6	0	0	---	0.01	29.799 
17:45	51.4	51.4	51.4	97	50.6	0	0	---	0.00	29.800 
17:50	51.4	51.4	51.4	97	50.6	0	0	---	0.00	29.800 
17:55	51.4	51.4	51.4	97	50.6	0	0	---	0.00	29.800 
18:00	51.3	51.3	51.3	97	50.5	0	1	248	0.01	29.810 
18:05	51.3	51.3	51.3	97	50.5	0	0	---	0.00	29.810 
18:10	51.3	51.3	51.3	97	50.5	0	1	248	0.00	29.810 
18:15	51.3	51.3	51.3	97	50.5	0	0	---	0.01	29.801 
18:20	51.3	51.3	51.3	97	50.5	0	1	248	0.00	29.801 
18:25	51.1	51.1	51.1	97	50.3	0	1	248	0.01	29.801 
18:30	51.1	51.1	51.1	97	50.3	0	1	248	0.00	29.821 
18:35	51.0	51.0	51.0	97	50.2	0	1	248	0.00	29.821 
18:40	51.0	51.0	51.0	97	50.2	0	1	248	0.00	29.821 
18:45	51.0	51.0	51.0	97	50.2	0	0	---	0.00	29.830 
18:50	50.8	50.8	50.8	97	50.0	0	0	---	0.00	29.830 
18:55	50.8	50.8	50.8	97	50.0	0	0	---	0.00	29.830 
19:00	50.8	50.8	50.8	97	50.0	0	0	---	0.01	29.815 
19:05	50.8	50.8	50.8	97	50.0	0	0	---	0.00	29.815 
19:10	50.8	50.8	50.8	97	50.0	0	0	---	0.00	29.815 
19:15	50.8	50.8	50.8	97	50.0	0	1	248	0.00	29.814 
19:20	50.8	50.8	50.8	97	50.0	0	0	---	0.00	29.814 
19:25	51.0	51.0	51.0	97	50.2	0	2	248	0.00	29.814 
19:30	50.8	50.8	50.8	97	50.0	0	1	248	0.00	29.815 
19:35	50.8	50.8	50.8	97	50.0	0	0	---	0.00	29.815 
19:40	50.8	50.8	50.8	97	50.0	0	2	248	0.00	29.815 
19:45	50.8	50.8	50.8	97	50.0	0	4	248	0.00	29.820 
19:50	50.7	50.7	50.7	97	49.9	1	6	292	0.00	29.820 
19:55	50.4	50.4	50.4	97	49.6	0	2	68	0.00	29.820 
20:00	49.9	49.9	49.9	96	48.8	1	4	292	0.00	29.832 
20:05	49.8	49.8	49.8	96	48.7	0	3	292	0.00	29.832 
20:10	49.6	49.6	49.6	96	48.5	0	2	292	0.00	29.832 
20:15	49.4	49.4	49.4	96	48.3	1	5	292	0.00	29.863 
20:20	49.2	49.2	49.2	96	48.1	0	2	315	0.00	29.863 
20:25	49.1	49.1	49.1	96	48.0	0	1	315	0.00	29.863 
20:30	48.9	48.9	48.9	96	47.8	0	1	315	0.00	29.865 
20:35	49.1	49.1	49.1	96	48.0	0	1	315	0.00	29.865 
20:40	49.1	49.1	49.1	96	48.0	0	2	315	0.00	29.865 
20:45	49.1	49.1	49.1	96	48.0	0	1	315	0.00	29.873 
20:50	48.9	48.9	48.9	96	47.8	0	2	315	0.00	29.873 
20:55	48.8	48.8	48.8	96	47.7	0	3	315	0.00	29.873 
21:00	48.8	48.8	48.8	96	47.7	0	3	315	0.00	29.880 
21:05	48.5	48.5	48.5	96	47.4	1	4	292	0.00	29.880 
21:10	48.2	48.2	48.2	96	47.1	0	3	292	0.00	29.880 
21:15	47.9	47.9	47.9	96	46.8	1	4	292	0.00	29.880 
21:20	47.7	47.7	47.7	96	46.6	1	3	270	0.00	29.880 
21:25	47.6	47.6	47.6	96	46.5	1	3	270	0.00	29.880 
21:30	47.4	47.4	47.4	96	46.3	0	3	0	0.00	29.883 
21:35	47.3	47.3	47.3	96	46.2	1	6	22	0.00	29.883 
21:40	47.0	47.0	47.0	96	45.9	1	3	0	0.00	29.883 
21:45	46.8	46.8	46.8	96	45.7	1	6	292	0.00	29.889 
21:50	46.8	46.8	46.8	96	45.7	1	3	315	0.00	29.889 
21:55	46.8	46.8	46.8	96	45.7	0	5	225	0.00	29.889 
22:00	46.8	46.8	46.8	95	45.4	0	2	22	0.00	29.897 
22:05	46.8	46.8	46.8	95	45.4	0	3	0	0.00	29.897 
22:10	46.8	46.8	46.8	95	45.4	0	2	315	0.00	29.897 
22:15	46.7	46.7	46.7	95	45.3	0	3	315	0.00	29.912 
22:20	46.7	46.7	46.7	95	45.3	1	5	270	0.00	29.912 
22:25	46.7	46.7	46.7	95	45.3	0	2	22	0.00	29.912 
22:30	46.7	46.7	46.7	94	45.1	1	3	0	0.00	29.917 
22:35	46.7	46.7	46.7	94	45.1	0	2	0	0.00	29.917 
22:40	46.7	46.7	46.7	94	45.1	0	3	0	0.00	29.917 
22:45	46.7	46.7	46.7	94	45.1	0	3	22	0.00	29.928 
22:50	46.7	46.7	46.7	94	45.1	0	1	248	0.00	29.928 
22:55	46.7	46.7	46.7	94	45.1	0	2	248	0.00	29.928 
23:00	46.7	46.7	46.7	94	45.1	0	1	0	0.00	29.942 
23:05	46.7	46.7	46.7	94	45.1	0	1	0	0.00	29.942 
23:10	46.7	46.7	46.7	93	44.8	0	1	0	0.00	29.942 
23:15	46.7	46.7	46.7	93	44.8	0	2	292	0.00	29.941 
23:20	46.5	46.5	46.5	93	44.6	0	0	---	0.00	29.941 
23:25	46.5	46.5	46.5	93	44.6	0	3	292	0.00	29.941 
23:30	46.4	46.4	46.4	93	44.5	0	1	292	0.00	29.944 
23:35	46.4	46.4	46.4	93	44.5	0	1	292	0.00	29.944 
23:40	46.4	46.4	46.4	93	44.5	0	3	292	0.00	29.944 
23:45	46.4	46.4	46.4	93	44.5	0	1	292	0.00	29.961 
23:50	46.4	46.4	46.4	93	44.5	0	2	292	0.00	29.961 
23:55	46.4	46.4	46.4	93	44.5	0	0	---	0.00	29.961 

CoCoRaHS
IN-AL-39
A2 Web Hosting
Creative Commons License
GoDaddy
search engine by freefind advanced

loaded 2018-11-15 13:32:39 • last modified 2010-11-18 10:43:29
Privacy PolicyDisclaimer
• wx.awcolley.com is powered by PmWiki v.2002016 •
• all content (unless otherwise noted) © 2018 A W Colley